Destin, FL

9:46 PM CDT on March 27, 2017 (GMT -0500)
Destin-Fort Walton Beach

Weather History for KDTS - March, 2013

Change the Weather History Date:

Friday, March 22, 2013

  Actual Average Record
Temperature  
Mean Temperature 58 °F -  
Max Temperature 66 °F 66 °F 82 °F (2017)
Min Temperature 53 °F 52 °F 42 °F (1998)
Degree Days  
Heating Degree Days 6    
Growing Degree Days 8 (Base 50)    
Moisture  
Dew Point 41 °F    
Average Humidity 50    
Maximum Humidity 69    
Minimum Humidity 32    
Precipitation  
Precipitation 0.00 in - - ()
Sea Level Pressure  
Sea Level Pressure 29.94 in    
Wind  
Wind Speed 7 mph (ESE)    
Max Wind Speed 17 mph    
Max Gust Speed 24 mph    
Visibility 10 miles    
Events      
Averages and records for this station are not official NWS values.
T = Trace of Precipitation, MM = Missing Value Source: NWS Daily Summary

Daily Weather History Graph

Daily Weather History Graph

Search for Another Location

Airport or City:

Trip Planner

Search our weather history database for the weather conditions in past years. The results will help you decide how hot, cold, wet, or windy it might be!

Date:

Astronomy

Mar. 22, 2013 Rise Set
Actual Time 6:46 AM CDT 6:58 PM CDT
Civil Twilight 6:22 AM CDT 7:22 PM CDT
Nautical Twilight 5:54 AM CDT 7:50 PM CDT
Astronomical Twilight 5:26 AM CDT 8:19 PM CDT
Moon 2:41 PM CDT (3/22) 3:29 AM CDT (3/22)
Length of Visible Light 12h 59m
Length of Day
12h 11m
Waxing Gibbous, 77% of the Moon is Illuminated
Mar 22
Waxing Gibbous
Mar 27
Full
Apr 2
Last Quarter
Apr 10
New
Apr 18
First Quarter

Hourly Weather History & Observations

Time (CDT) Temp. Dew Point Humidity Pressure Visibility Wind Dir Wind Speed Gust Speed Precip Events Conditions
12:53 AM 53.1 °F 41.0 °F 64% 29.93 in 10.0 mi Calm Calm - N/A   Mostly Cloudy
1:53 AM 53.1 °F 42.1 °F 66% 29.93 in 10.0 mi Calm Calm - N/A   Partly Cloudy
2:53 AM 55.9 °F 46.0 °F 69% 29.92 in 10.0 mi Calm Calm - N/A   Mostly Cloudy
3:53 AM 55.0 °F 43.0 °F 64% 29.91 in 10.0 mi East 3.5 mph - N/A   Overcast
4:53 AM 55.9 °F 37.0 °F 49% 29.92 in 10.0 mi East 9.2 mph - N/A   Overcast
5:53 AM 54.0 °F 30.9 °F 41% 29.94 in 10.0 mi East 6.9 mph - N/A   Mostly Cloudy
6:53 AM 54.0 °F 30.9 °F 41% 29.97 in 10.0 mi East 6.9 mph - N/A   Mostly Cloudy
7:53 AM 54.0 °F 32.0 °F 43% 30.00 in 10.0 mi East 10.4 mph - N/A   Overcast
8:53 AM 55.9 °F 32.0 °F 40% 30.00 in 10.0 mi East 11.5 mph 17.3 mph N/A   Mostly Cloudy
9:53 AM 60.1 °F 33.1 °F 36% 29.97 in 10.0 mi East 8.1 mph - N/A   Mostly Cloudy
10:53 AM 62.1 °F 32.0 °F 32% 29.97 in 10.0 mi ESE 17.3 mph 24.2 mph N/A   Mostly Cloudy
11:53 AM 62.1 °F 39.9 °F 44% 29.97 in 10.0 mi ESE 16.1 mph 24.2 mph N/A   Overcast
12:53 PM 63.0 °F 45.0 °F 52% 29.96 in 10.0 mi SE 16.1 mph 24.2 mph N/A   Overcast
1:53 PM 63.0 °F 46.0 °F 54% 29.94 in 10.0 mi SE 13.8 mph - N/A   Overcast
2:53 PM 64.9 °F 48.0 °F 54% 29.91 in 10.0 mi SE 17.3 mph - N/A   Clear
3:53 PM 63.0 °F 46.0 °F 54% 29.92 in 10.0 mi SE 13.8 mph - N/A   Mostly Cloudy
4:53 PM 63.0 °F 44.1 °F 50% 29.92 in 10.0 mi ESE 15.0 mph 20.7 mph N/A   Overcast
5:53 PM 64.0 °F 45.0 °F 50% 29.91 in 10.0 mi SE 12.7 mph - N/A   Overcast
6:53 PM 64.0 °F 45.0 °F 50% 29.91 in 10.0 mi SE 9.2 mph - N/A   Mostly Cloudy
7:53 PM 64.0 °F 46.0 °F 52% 29.92 in 10.0 mi ESE 9.2 mph - N/A   Overcast
8:53 PM 64.0 °F 46.9 °F 54% 29.92 in 10.0 mi East 8.1 mph - N/A   Mostly Cloudy
9:51 PM 64.4 °F 51.8 °F 64% 29.93 in 10.0 mi ESE 6.9 mph - N/A   Overcast
9:53 PM 64.0 °F 51.1 °F 63% 29.93 in 10.0 mi ESE 9.2 mph - N/A   Overcast
10:53 PM 64.0 °F 37.9 °F 38% 29.93 in 10.0 mi East 6.9 mph - N/A   Overcast
11:53 PM 64.0 °F 36.0 °F 35% 29.91 in 10.0 mi East 9.2 mph - N/A   Overcast